Location: Banios
(43.0451°N, 0.2335°E)
Time: 11:13:46
(UTC+00:00)

Envisat - Pass Details

Date: 15 December 2021
Orbit: 764 x 766 km, 98.2° (Epoch: 20 January)

Event Time Altitude Azimuth Distance (km) Brightness Sun altitude
Rises 05:22:28 0° 9° (N) 3,242 6.2 -21.2°
Reaches altitude 10° 05:24:48 10° 6° (N) 2,311 5.4 -20.8°
Maximum altitude 05:29:48 60° 288° (WNW) 876 2.9 -19.9°
Drops below altitude 10° 05:34:47 10° 209° (SSW) 2,294 5.3 -19.1°
Sets 05:37:05 0° 205° (SSW) 3,216 6.1 -18.7°
